This demonstration page uses our WeatherBlox Daily Observations layout. Learn more.

Left ArrowRight Arrow

Hourly Observations for July 29, 2020

Temp ( °F °C ) Dew Point ( °F °C ) Humidity (%) Winds ( mph kmh ) Pressure ( in mb ) Visibility ( mi km ) Precip ( " mm )
3:53 am 03:53 Mostly Clear 72 22.2 69 20.6 91 91 S 3 6 29.86 1011 10 16 0.00 0.00
4:53 am 04:53 Partly Cloudy 72 22.2 69 20.6 91 91 SSW 3 6 29.87 1012 10 16 0.00 0.00
5:53 am 05:53 Cloudy 72 22.2 69 20.6 91 91 E 3 6 29.88 1012 10 16 0.00 0.00
6:48 am 06:48 Mostly Cloudy with Light Rain 73 23 70 21 89 89 S 3 6 29.88 1012 10 16 0.00 0.00
6:53 am 06:53 Mostly Cloudy with Light Rain 73 22.8 70 21.1 90 90 SE 5 7 29.89 1012 10 16 0.00 0.00
7:01 am 07:01 Cloudy 73 22.8 70 21.1 90 90 Calm 29.87 1011 10 16 0.00 0.00
7:14 am 07:14 Cloudy 72 22.2 70 21.1 94 94 Calm 29.87 1012 10 16 0.00 0.00
7:53 am 07:53 Mostly Cloudy 72 22.2 70 21.1 94 94 NNE 6 9 29.88 1012 7 11 0.00 0.00
8:09 am 08:09 Mostly Cloudy with Mist and Fog 72 22.2 70 21.1 94 94 ENE 6 9 29.87 1012 6 10 0.00 0.00
8:17 am 08:17 Mostly Cloudy with Mist and Fog 72 22.2 70 21.1 94 94 ENE 6 9 29.86 1011 6 10 0.00 0.00
8:28 am 08:28 Cloudy with Nearby Thunderstorms 72 22 70 21 94 94 ENE 3 6 29.87 1012 5 8 0.00 0.00
8:37 am 08:37 Cloudy with Mist and Fog 72 22.2 70 21.1 94 94 E 3 6 29.87 1012 5 8 0.00 0.00
8:49 am 08:49 Cloudy with Mist and Fog 72 22 70 21 94 94 SE 5 7 29.87 1012 6 10 0.00 0.00
8:53 am 08:53 Cloudy 72 22.2 70 21.1 94 94 SE 5 7 29.90 1013 7 11 0.00 0.00
9:07 am 09:07 Cloudy with Rain 73 22.8 71 21.7 94 94 SE 7 11 29.88 1012 2 3 0.06 1.52
9:18 am 09:18 Cloudy with Heavy Rain 72 22.2 70 21.1 94 94 SSE 8 13 29.88 1012 2 3 0.14 3.56
9:25 am 09:25 Cloudy with Heavy Rain 72 22.2 71 21.7 97 97 S 5 7 29.88 1012 1 2 0.21 5.33
9:34 am 09:34 Cloudy with Light Rain 72 22.2 70 21.1 94 94 S 3 6 29.88 1012 3 5 0.22 5.59
9:53 am 09:53 Cloudy with Light Rain 73 22.8 71 21.7 94 94 S 6 9 29.90 1013 10 16 0.23 5.84
10:02 am 10:02 Cloudy 73 22.8 71 21.7 94 94 S 3 6 29.88 1012 10 16 0.00 0.00
10:15 am 10:15 Cloudy 74 23.3 71 21.7 91 91 VRB 5 7 29.86 1011 10 16 0.00 0.00
10:48 am 10:48 Partly Cloudy 75 24 72 22 89 89 Calm 29.85 1011 10 16 0.00 0.00
10:53 am 10:53 Partly Cloudy 76 24.4 71 21.7 85 85 Calm 29.89 1012 10 16 0.00 0.00
11:53 am 11:53 Mostly Sunny 81 27.2 70 21.1 69 69 E 6 9 29.88 1012 10 16 0.00 0.00
12:53 pm 12:53 Mostly Sunny 82 27.8 71 21.7 69 69 E 10 17 29.88 1012 10 16 0.00 0.00
1:53 pm 13:53 Mostly Sunny 83 28.3 70 21.1 65 65 E 9 15 29.85 1011 10 16 0.00 0.00
2:53 pm 14:53 Mostly Sunny 85 29.4 71 21.7 63 63 E 9 15 29.83 1010 10 16 0.00 0.00
3:53 pm 15:53 Mostly Cloudy 81 27.2 69 20.6 67 67 E 12 19 29.84 1010 10 16 0.00 0.00
4:53 pm 16:53 Mostly Sunny 83 28.3 69 20.6 63 63 E 8 13 29.81 1010 10 16 0.00 0.00
5:53 pm 17:53 Mostly Sunny 83 28.3 70 21.1 65 65 E 7 11 29.80 1009 10 16 0.00 0.00
6:53 pm 18:53 Mostly Sunny 80 26.7 69 20.6 69 69 E 10 17 29.82 1010 10 16 0.00 0.00
7:53 pm 19:53 Cloudy 79 26.1 69 20.6 72 72 SE 13 20 29.83 1010 10 16 0.00 0.00
8:22 pm 20:22 Cloudy with Nearby Thunderstorms 78 25.6 69 20.6 74 74 VRB 6 9 29.81 1009 10 16 0.00 0.00
8:35 pm 20:35 Cloudy with Thunderstorms 70 21.1 67 19.4 90 90 N 33 54 29.85 1011 2 3 0.14 3.56
8:37 pm 20:37 Cloudy with Strong Thunderstorms 68 20 66 18.9 93 93 N 39 63 29.86 1011 1 2 0.29 7.37
8:41 pm 20:41 Cloudy with Strong Thunderstorms 67 19.4 66 18.9 97 97 N 33 54 29.89 1012 1 1 0.54 13.72
8:51 pm 20:51 Cloudy with Strong Thunderstorms 66 19 66 19 100 100 E 13 20 29.87 1012 1 1 0.91 23.11
8:53 pm 20:53 Cloudy with Strong Thunderstorms 67 19.4 66 18.9 97 97 E 12 19 29.89 1012 1 2 0.96 24.38
9:00 pm 21:00 Cloudy with Strong Thunderstorms 68 20 66 18.9 93 93 ESE 7 11 29.87 1011 2 3 0.09 2.29
9:06 pm 21:06 Cloudy with Nearby Thunderstorms 68 20 67 19.4 96 96 E 5 7 29.87 1011 3 4 0.13 3.30
9:09 pm 21:09 Cloudy with Nearby Thunderstorms 68 20 68 20 100 100 E 5 7 29.86 1011 3 5 0.14 3.56
9:26 pm 21:26 Mostly Cloudy 71 21.7 71 21.7 100 100 VRB 5 7 29.83 1010 10 16 0.14 3.56
9:53 pm 21:53 Cloudy with Light Rain 72 22.2 71 21.7 97 97 SSE 3 6 29.87 1012 10 16 0.14 3.56
10:53 pm 22:53 Clear 72 22.2 71 21.7 97 97 NE 7 11 29.88 1012 10 16 0.00 0.00
11:39 pm 23:39 Mostly Cloudy 71 21.7 69 20.6 94 94 NE 10 17 29.84 1011 10 16 0.00 0.00
11:45 pm 23:45 Mostly Cloudy 71 21.7 69 20.6 94 94 NE 9 15 29.83 1010 10 16 0.00 0.00
11:53 pm 23:53 Cloudy 71 21.7 70 21.1 96 96 NE 12 19 29.86 1011 10 16 0.00 0.00

Powered by AerisWeather